Time,TemperatureF,DewpointF,PressureIn,WindDirection,WindDirectionDegrees,WindSpeedMPH,WindSpeedGustMPH,Humidity,HourlyPrecipIn,Conditions,Clouds,dailyrainin,SolarRadiationWatts/m^2,SoftwareType,DateUTC
2013-08-16 00:00:00,-999.9,-99.9,29.98,ENE,64,0.0,0.0,255,0.00,,,0.01,0,Wunderground v.1.15,2013-08-16 05:00:00,
2013-08-16 00:30:00,-999.9,-99.9,29.98,ENE,64,0.0,0.0,255,0.00,,,0.00,0,Wunderground v.1.15,2013-08-16 05:30:00,
2013-08-16 01:00:00,-999.9,-99.9,29.98,ENE,64,0.0,0.0,255,0.00,,,0.00,0,Wunderground v.1.15,2013-08-16 06:00:00,
2013-08-16 01:30:00,-999.9,-99.9,29.96,ENE,64,0.0,0.0,255,0.00,,,0.00,0,Wunderground v.1.15,2013-08-16 06:30:00,
2013-08-16 02:00:00,-999.9,-99.9,29.96,ENE,64,0.0,0.0,255,0.00,,,0.00,0,Wunderground v.1.15,2013-08-16 07:00:00,
2013-08-16 02:30:00,-999.9,-99.9,29.96,ENE,64,0.0,0.0,255,0.00,,,0.00,0,Wunderground v.1.15,2013-08-16 07:30:00,
2013-08-16 03:00:00,-999.9,-99.9,29.95,ENE,64,0.0,0.0,255,0.00,,,0.00,0,Wunderground v.1.15,2013-08-16 08:00:00,
2013-08-16 03:30:00,-999.9,-99.9,29.95,ENE,64,0.0,0.0,255,0.00,,,0.00,0,Wunderground v.1.15,2013-08-16 08:30:00,
2013-08-16 04:00:00,-999.9,-99.9,29.96,ENE,64,0.0,0.0,255,0.00,,,0.00,0,Wunderground v.1.15,2013-08-16 09:00:00,
2013-08-16 04:30:00,-999.9,-99.9,29.95,ENE,64,0.0,0.0,255,0.12,,,0.13,0,Wunderground v.1.15,2013-08-16 09:30:00,
2013-08-16 05:00:00,-999.9,-99.9,29.97,ENE,64,0.0,0.0,255,0.00,,,0.13,0,Wunderground v.1.15,2013-08-16 10:00:00,
2013-08-16 05:30:00,-999.9,-99.9,29.98,ENE,64,0.0,0.0,255,0.22,,,0.19,0,Wunderground v.1.15,2013-08-16 10:30:00,
2013-08-16 06:00:00,-999.9,-99.9,29.98,ENE,63,0.0,0.0,255,0.08,,,0.46,0,Wunderground v.1.15,2013-08-16 11:00:00,
2013-08-16 06:30:00,-999.9,-99.9,29.99,ENE,63,0.0,0.0,255,0.29,,,0.55,0,Wunderground v.1.15,2013-08-16 11:30:00,
2013-08-16 07:00:00,-999.9,-99.9,29.98,ENE,63,0.0,0.0,255,0.00,,,0.61,12,Wunderground v.1.15,2013-08-16 12:00:00,
2013-08-16 07:30:00,-999.9,-99.9,30.00,ENE,63,0.0,0.0,255,0.00,,,0.61,21,Wunderground v.1.15,2013-08-16 12:30:00,
2013-08-16 08:00:00,-999.9,-99.9,30.00,ENE,63,0.0,0.0,255,0.00,,,0.61,40,Wunderground v.1.15,2013-08-16 13:00:00,
2013-08-16 08:30:00,-999.9,-99.9,29.99,ENE,63,0.0,0.0,255,0.00,,,0.61,98,Wunderground v.1.15,2013-08-16 13:30:00,
2013-08-16 09:00:00,-999.9,-99.9,30.00,ENE,63,0.0,0.0,255,0.00,,,0.61,151,Wunderground v.1.15,2013-08-16 14:00:00,
2013-08-16 09:30:00,-999.9,-99.9,30.02,ENE,63,0.0,0.0,255,0.00,,,0.61,44,Wunderground v.1.15,2013-08-16 14:30:00,
2013-08-16 10:00:00,-999.9,-99.9,30.03,ENE,63,0.0,0.0,255,0.00,,,0.61,26,Wunderground v.1.15,2013-08-16 15:00:00,
2013-08-16 10:30:00,-999.9,-99.9,30.03,ENE,63,0.0,0.0,255,0.00,,,0.61,19,Wunderground v.1.15,2013-08-16 15:30:00,
2013-08-16 11:00:00,-999.9,-99.9,30.02,ENE,63,0.0,0.0,255,0.15,,,0.64,65,Wunderground v.1.15,2013-08-16 16:00:00,
2013-08-16 11:30:00,-999.9,-99.9,30.01,ENE,63,0.0,0.0,255,0.00,,,0.66,134,Wunderground v.1.15,2013-08-16 16:30:00,
2013-08-16 12:00:00,-999.9,-99.9,30.01,ENE,63,0.0,0.0,255,0.00,,,0.66,118,Wunderground v.1.15,2013-08-16 17:00:00,
2013-08-16 12:30:00,-999.9,-99.9,29.99,ENE,63,0.0,0.0,255,0.00,,,0.66,223,Wunderground v.1.15,2013-08-16 17:30:00,
2013-08-16 13:00:00,-999.9,-99.9,30.00,ENE,62,0.0,0.0,255,0.00,,,0.66,207,Wunderground v.1.15,2013-08-16 18:00:00,
2013-08-16 13:30:00,-999.9,-99.9,29.99,ENE,62,0.0,0.0,255,0.00,,,0.66,199,Wunderground v.1.15,2013-08-16 18:30:00,
2013-08-16 14:00:00,-999.9,-99.9,29.99,ENE,62,0.0,0.0,255,0.00,,,0.66,207,Wunderground v.1.15,2013-08-16 19:00:00,
2013-08-16 14:30:00,-999.9,-99.9,29.98,ENE,62,0.0,0.0,255,0.00,,,0.66,181,Wunderground v.1.15,2013-08-16 19:30:00,
2013-08-16 15:00:00,-999.9,-99.9,29.96,ENE,62,0.0,0.0,255,0.00,,,0.66,74,Wunderground v.1.15,2013-08-16 20:00:00,
2013-08-16 15:30:00,-999.9,-99.9,29.96,NE,37,0.0,0.0,255,0.00,,,0.66,14,Wunderground v.1.15,2013-08-16 20:30:00,
2013-08-16 16:00:00,-999.9,-99.9,29.98,NE,35,0.0,0.0,255,0.37,,,0.87,14,Wunderground v.1.15,2013-08-16 21:00:00,
2013-08-16 16:30:00,-999.9,-99.9,29.98,NE,35,0.0,0.0,255,0.27,,,1.20,26,Wunderground v.1.15,2013-08-16 21:30:00,
2013-08-16 17:00:00,-999.9,-99.9,29.99,NE,35,0.0,0.0,255,0.13,,,1.23,37,Wunderground v.1.15,2013-08-16 22:00:00,
2013-08-16 17:30:00,-999.9,-99.9,29.99,NE,35,0.0,0.0,255,0.00,,,1.24,25,Wunderground v.1.15,2013-08-16 22:30:00,
2013-08-16 18:00:00,-999.9,-99.9,30.00,NE,35,0.0,0.0,255,0.00,,,1.24,26,Wunderground v.1.15,2013-08-16 23:00:00,
2013-08-16 18:30:00,-999.9,-99.9,30.00,NE,35,0.0,0.0,255,0.00,,,1.24,16,Wunderground v.1.15,2013-08-16 23:30:00,
2013-08-16 19:00:00,-999.9,-99.9,30.00,NE,35,0.0,0.0,255,0.00,,,1.24,5,Wunderground v.1.15,2013-08-17 00:00:00,
2013-08-16 19:30:00,-999.9,-99.9,30.01,NE,35,0.0,0.0,255,0.00,,,1.24,0,Wunderground v.1.15,2013-08-17 00:30:00,
2013-08-16 20:00:00,-999.9,-99.9,30.02,NE,35,0.0,0.0,255,0.00,,,1.24,0,Wunderground v.1.15,2013-08-17 01:00:00,
2013-08-16 20:30:00,-999.9,-99.9,30.02,NE,35,0.0,0.0,255,0.00,,,1.24,0,Wunderground v.1.15,2013-08-17 01:30:00,
2013-08-16 21:00:00,-999.9,-99.9,30.03,NE,35,0.0,0.0,255,0.00,,,1.25,0,Wunderground v.1.15,2013-08-17 02:00:00,
2013-08-16 21:30:00,-999.9,-99.9,30.04,NE,35,0.0,0.0,255,0.08,,,1.27,0,Wunderground v.1.15,2013-08-17 02:30:00,
2013-08-16 22:00:00,-999.9,-99.9,30.05,ENE,60,0.0,0.0,255,0.07,,,1.30,0,Wunderground v.1.15,2013-08-17 03:00:00,
2013-08-16 22:30:00,-999.9,-99.9,30.04,ENE,60,0.0,0.0,255,0.04,,,1.34,0,Wunderground v.1.15,2013-08-17 03:30:00,
2013-08-16 23:00:00,-999.9,-99.9,30.03,ENE,60,0.0,0.0,255,0.10,,,1.38,0,Wunderground v.1.15,2013-08-17 04:00:00,
2013-08-16 23:30:00,-999.9,-99.9,30.03,ENE,60,0.0,0.0,255,0.00,,,1.38,0,Wunderground v.1.15,2013-08-17 04:30:00,